Shelbyville, IN

5:04 PM EST on December 14, 2019 (GMT -0500)
Shelbyville Municipal

Weather History for KGEZ - October, 2019

Change the Weather History Date:

Tuesday, October 8, 2019

  Actual Average Record
Temperature  
Mean Temperature 59 °F 57 °F  
Max Temperature 75 °F 69 °F 91 °F (2007)
Min Temperature 43 °F 45 °F 29 °F (2012)
Degree Days  
Heating Degree Days 6 9  
Month to date heating degree days 20 65  
Since 1 July heating degree days 23 150  
Cooling Degree Days 0 1  
Month to date cooling degree days 36 8  
Year to date cooling degree days 1330 907  
Growing Degree Days 8 (Base 50)    
Moisture  
Dew Point 42 °F    
Average Humidity 62    
Maximum Humidity 96    
Minimum Humidity 27    
Precipitation  
Precipitation 0.00 in 0.09 in 0.56 in (1999)
Month to date precipitation 0.38 0.87  
Year to date precipitation 32.59 34.32  
Sea Level Pressure  
Sea Level Pressure 30.20 in    
Wind  
Wind Speed 5 mph (East)    
Max Wind Speed 10 mph    
Max Gust Speed 18 mph    
Visibility 9 miles    
Events      
T = Trace of Precipitation, MM = Missing Value Source: NWS Daily Summary

Daily Weather History Graph

Daily Weather History Graph

Search for Another Location

Airport or City:

Astronomy

Oct. 08, 2019 Rise Set
Actual Time 7:45 AM EDT 7:14 PM EDT
Civil Twilight 7:19 AM EDT 7:41 PM EDT
Nautical Twilight 6:47 AM EDT 8:12 PM EDT
Astronomical Twilight 6:16 AM EDT 8:44 PM EDT
Moon 5:12 PM EDT (10/8) 2:36 AM EDT (10/8)
Length of Visible Light 12h 22m
Length of Day
11h 28m
Waxing Gibbous, 77% of the Moon is Illuminated
Oct 8
Waxing Gibbous
Oct 13
Full
Oct 21
Last Quarter
Oct 27
New
Nov 4
First Quarter

Hourly Weather History & Observations

Time (EDT) Temp. Windchill Dew Point Humidity Pressure Visibility Wind Dir Wind Speed Gust Speed Precip Events Conditions
12:53 AM 46.9 °F - 43.0 °F 86% 30.22 in 10.0 mi SE 4.6 mph - N/A   Clear
1:53 AM 46.0 °F - 42.1 °F 86% 30.22 in 10.0 mi Calm Calm - N/A   Clear
2:53 AM 46.0 °F 44.8 °F 43.0 °F 89% 30.22 in 10.0 mi East 3.5 mph - N/A   Clear
3:53 AM 45.0 °F 43.5 °F 42.1 °F 90% 30.21 in 10.0 mi ESE 3.5 mph - N/A   Clear
4:53 AM 44.1 °F 41.5 °F 42.1 °F 93% 30.21 in 10.0 mi East 4.6 mph - N/A   Clear
5:53 AM 44.1 °F 42.5 °F 41.0 °F 89% 30.22 in 9.0 mi NE 3.5 mph - N/A   Clear
6:53 AM 44.1 °F 40.8 °F 41.0 °F 89% 30.23 in 6.0 mi East 5.8 mph - N/A   Clear
7:53 AM 43.0 °F - 41.0 °F 93% 30.25 in 4.0 mi Calm Calm - N/A   Clear
8:53 AM 48.9 °F - 46.0 °F 90% 30.25 in 4.0 mi Calm Calm - N/A   Clear
9:53 AM 57.0 °F - 52.0 °F 83% 30.25 in 9.0 mi Calm Calm - N/A   Clear
10:53 AM 64.0 °F - 48.0 °F 56% 30.25 in 10.0 mi East 4.6 mph - N/A   Clear
11:53 AM 69.1 °F - 41.0 °F 36% 30.24 in 10.0 mi Variable 4.6 mph - N/A   Clear
12:53 PM 72.0 °F - 39.0 °F 30% 30.22 in 10.0 mi NE 8.1 mph - N/A   Clear
1:53 PM 71.1 °F - 37.9 °F 30% 30.20 in 10.0 mi ENE 8.1 mph - N/A   Clear
2:53 PM 73.9 °F - 37.9 °F 27% 30.17 in 10.0 mi Variable 6.9 mph - N/A   Clear
3:53 PM 73.9 °F - 37.9 °F 27% 30.15 in 10.0 mi ENE 6.9 mph - N/A   Clear
4:53 PM 73.9 °F - 39.0 °F 28% 30.14 in 10.0 mi NE 4.6 mph - N/A   Clear
5:53 PM 73.0 °F - 37.9 °F 28% 30.14 in 10.0 mi ENE 5.8 mph - N/A   Clear
6:53 PM 68.0 °F - 39.9 °F 36% 30.14 in 10.0 mi NE 5.8 mph - N/A   Clear
7:53 PM 57.9 °F - 43.0 °F 58% 30.15 in 10.0 mi East 6.9 mph - N/A   Clear
8:53 PM 54.0 °F - 44.1 °F 69% 30.15 in 10.0 mi East 6.9 mph - N/A   Clear
9:53 PM 53.1 °F - 43.0 °F 69% 30.16 in 10.0 mi East 5.8 mph - N/A   Clear
10:53 PM 51.1 °F - 43.0 °F 74% 30.16 in 10.0 mi East 5.8 mph - N/A   Clear
11:53 PM 50.0 °F - 42.1 °F 74% 30.16 in 10.0 mi East 5.8 mph - N/A   Clear